Regional Weather Roundup
Issued by NWS Charleston, SC

Current Version | Previous Version | Graphics & Text | Print | Product List | Glossary On
Versions: 1 2 3 4 5 6 7 8 9 10 11 12 13 14 15 16 17 18 19 20 21 22 23 24 25 26 27 28 29 30 31 32 33 34 35 36 37 38 39 40 41 42 43 44 45 46 47 48 49 50
000
ASUS42 KCHS 212212
RWRCHS

REGIONAL WEATHER ROUNDUP
NATIONAL WEATHER SERVICE CHARLESTON SC
600 PM EDT THU MAY 21 2015

NOTE: "FAIR" INDICATES FEW OR NO CLOUDS BELOW 12,000 FEET WITH NO
SIGNIFICANT WEATHER AND/OR OBSTRUCTIONS TO VISIBILITY.

NOT ALL STATIONS ARE QUALITY CONTROLLED BY THE NATIONAL
WEATHER SERVICE. USE DATA WITH CAUTION...ESPECIALLY
DEWPOINT OBSERVATIONS.

SCZ027-030-031-034>040-042>050-212300-
...SOUTHEAST SOUTH CAROLINA...

CITY           SKY/WX    TMP DP  RH WIND       PRES   REMARKS
N CHARLESTON   MOSUNNY   91  58  32 W13       29.80S HX  90
WATERFRONT PAR   N/A     90  63  40 W7        29.78S HX  91
MOUNT PLEASANT LGT RAIN  91  64  40 SW10G16   29.80S HX  93
JOHNS ISLAND   CLEAR     91  61  35 W13G18    29.81S HX  91
PINOPOLIS      NOT AVBL
MONCKS CORNER  FAIR      91  61  35 W5        29.80S HX  91
SUMMERVILLE    FAIR      91  59  33 W10G17    29.81S HX  90
BEAUFORT MCAS  MOSUNNY   92  59  33 W13G22    29.82F HX  91
BEAUFORT ARPT  FAIR      91  63  38 W17       29.82F HAZE    HX  92
HILTON HEAD IS SUNNY     91  59  33 SW13G22   29.84F HX  90
WALTERBORO     CLEAR     90  57  33 W12G17    29.82S
ALLENDALE      FAIR      90  59  35 VRB6G14   29.82F

...SOUTHERN MIDLANDS AND PEE DEE...

CITY           SKY/WX    TMP DP  RH WIND       PRES   REMARKS
GEORGETOWN     NOT AVBL
KINGSTREE      NOT AVBL
ORANGEBURG     SUNNY     90  57  32 W18       29.81S
BARNWELL       FAIR      91  59  33 W12G20    29.84S HX  90
AIKEN          FAIR      86  52  30 W13G22    29.88F
MANNING        FAIR      90  59  35 NW5       29.78S
COLUMBIA       MOSUNNY   90  58  33 W20       29.80S
SUMTER         SUNNY     91  59  34 W10       29.77F
FLORENCE       SUNNY     86  64  47 N15       29.79R
MYRTLE BEACH   MOSUNNY   90  66  45 W13       29.79R HX  92
N MYRTLE BEACH PTSUNNY   86  67  52 N13       29.77R

$$

GAZ063-065-086>088-099>101-113>116-118-119-134>141-150-212300-
...SOUTHEAST GEORGIA...

CITY           SKY/WX    TMP DP  RH WIND       PRES   REMARKS
SAVANNAH ARPT  SUNNY     91  58  32 W17G25    29.84F HX  90
HUNTER AAF     SUNNY     92  62  37 W14G23    29.82F HX  92
FORT STEWART   SUNNY     92  56  29 W15G23    29.84F HX  90
STATESBORO     SUNNY     91  64  41 W12G20    29.85F HX  92
SYLVANIA       CLEAR     93  61  34 W10G18    29.85F HX  93
CLAXTON        FAIR      90  61  37 W10G16    29.86F

...CSRA...CENTRAL AND FAR SOUTHEAST GEORGIA...

CITY           SKY/WX    TMP DP  RH WIND       PRES   REMARKS
THOMSON        SUNNY     86  63  44 W13G21    29.93S
AUGUSTA-BUSH   SUNNY     89  57  33 NW17G24   29.85R
AUGUSTA-DANIEL SUNNY     87  57  35 W13G25    29.87S
SWAINSBORO     FAIR      91  61  35 W10G17    29.88S HX  91
VIDALIA        SUNNY     90  57  33 W12G20    29.87F
EASTMAN        FAIR      91  62  38 W12G17    29.92S HX  91
HAZLEHURST     FAIR      92  58  31 W5        29.88S HX  91
ALMA           SUNNY     91  59  33 W8        29.88F HX  90
WAYCROSS       SUNNY     92  63  37 W10G21    29.89S HX  93
JESUP          FAIR      95  61  31 W10G23    29.87F HX  95
BAXLEY         FAIR      91  61  35 NW12G18   29.88S HX  91
BRUNSWICK      SUNNY     91  54  27 W6        29.87F
SAINT SIMONS   NOT AVBL

$$

SCZ027-028-034-036>038-045-046-048>050-GAZ119-141-212300-
...LAKE AND SUPPLEMENTAL COASTAL OBSERVATIONS...

STATION/POSITION TIME  TEMP    WIND        PRES    WAVE   SWELL
                       AIR SEA DIR/SP/G            HT/PER HT/PER/DIR
                 (UTC) (F)     (DEG/KT/KT) (MB)    (FT/S) (FT/S/D)
UPR LAKE MARION  NOT AVBL
WINYAH BAY       NOT AVBL
LAKE MURRAY      2100   87     270/ 16/ 21 1008.5F
ACE BASIN NERRS  NOT AVBL
FORT PULASKI     2100   89 80  270/ 13/ 16 1011.0F
SAPELO ISLAND    2100   92     260/ 13     1011.0F

$$

ANZ835-935-AMZ111-154-330-350-352-354-370-450-454-472-212300-
...C-MAN AND BUOY OBSERVATIONS...

STATION/POSITION TIME  TEMP    WIND        PRES    WAVE   SWELL
                       AIR SEA DIR/SP/G            HT/PER HT/PER/DIR
                 (UTC) (F)     (DEG/KT/KT) (MB)    (FT/S) (FT/S/D)
BUOY 41004       2150   78 76  220/ 17/ 21 1008.7S   4/ 5   2/ 8
BUOY 41008       2150   80 79  200/ 12/ 14 1011.3F   1/ 9
FOLLY BEACH CMAN 2200   89     270/  9/ 15 1009.4F
CAPERS NEARSHORE 2108   82     280/ 12/ 17 1009.2F
FRIPP NEARSHORE  2100   85     270/ 12/ 14 1010.0F


STATION/POSITION TIME  TEMP    WIND        PRES    WAVE   SWELL
                       AIR SEA DIR/SP/G            HT/PER HT/PER/DIR
                 (UTC) (F)     (DEG/KT/KT) (MB)    (FT/S) (FT/S/D)
5E ST. MARYS GA  2121      80                N/A     1/ 9
FRYING PAN BUOY  2150   78 76  220/ 17/ 21 1008.6R   4/ 5   2/ 90/ 8
BUOY 41025       2150   77 77  180/ 16/ 17 1008.2R   4/ 5   2/ 60/ 8
CAPE LOOKOUT NC  2200   77     190/ 13/ 15 1007.5R
BUOY 41002       2150   76 75  210/ 14/ 16 1011.7F   4/ 5   2/ 30/ 8
BUOY 41010       2120   80 80  210/ 10/ 10 1013.9F
ST AUGUSTINE FL  2200   92 74  260/ 10/ 12 1012.8F


$$



USA.gov is the U.S. government's official web portal to all federal, state and local government web resources and services.